Regional Weather Roundup
Issued by NWS Memphis, TN

Home | Current Version | Previous Version | Text Only | Print | Product List | Glossary On
Versions: 1 2 3 4 5 6 7 8 9 10 11 12 13 14 15 16 17 18 19 20 21 22 23 24 25 26 27 28 29 30 31 32 33 34 35 36 37 38 39 40 41 42 43 44 45 46 47 48 49 50
000
ASUS44 KMEG 100310
RWRMEG
MEMPHIS CWA HOURLY WEATHER ROUNDUP
NATIONAL WEATHER SERVICE MEMPHIS TN
900 PM CST FRI DEC 09 2016

...WEST TENNESSEE...

CITY           SKY/WX    TMP DP  RH WIND       PRES   REMARKS
MEMPHIS INTL   CLEAR     30  20  66 CALM      30.59R
NWS MEMPHIS      N/A     26 N/A N/A MISG        N/A
JACKSON        CLEAR     24  19  81 CALM      30.58S
BOLIVAR        CLEAR     23  19  86 CALM      30.58R
LEXINGTON      CLEAR     25  18  74 CALM      30.56S
DYERSBURG      CLEAR     25  21  86 CALM      30.59S
UNION CITY     CLEAR     21  16  79 CALM      30.58R
PARIS          CLEAR     18  12  79 CALM      30.57S
HUNTINGDON     CLEAR     25  19  80 CALM      30.57S


...EASTERN ARKANSAS...

CITY           SKY/WX    TMP DP  RH WIND       PRES   REMARKS
JONESBORO      CLEAR     25  21  85 CALM      30.60S
BATESVILLE     CLEAR     27  16  63 CALM      30.60S
NEWPORT        CLEAR     28  24  85 CALM      30.61S
WALNUT RIDGE   CLEAR     28  18  64 CALM      30.60R
BLYTHEVILLE    CLEAR     27  19  72 CALM      30.61R
SEARCY         CLEAR     27  21  78 CALM      30.62S
STUTTGART      CLEAR     28  19  69 NE3       30.61R
PINE BLUFF     CLEAR     27  21  78 CALM      30.60S
MONTICELLO     CLEAR     29  22  75 NE3       30.59R


...NORTH MISSISSIPPI...

CITY           SKY/WX    TMP DP  RH WIND       PRES   REMARKS
TUPELO         CLEAR     27  18  69 NW5       30.57R WCI  22
OXFORD         CLEAR     25  19  80 CALM      30.59R
BATESVILLE     CLEAR     26  22  85 CALM      30.60S
TUNICA         CLEAR     27  21  80 N5        30.62R WCI  21
CLARKSDALE     CLEAR     28  25  86 N5        30.60F WCI  23
CORINTH        CLEAR     27  19  74 CALM      30.57S
GREENWOOD      CLEAR     28  21  75 N5        30.58R WCI  23
COLUMBUS       CLEAR     26  22  87 CALM      30.56R
STARKVILLE     CLEAR     28  23  80 CALM      30.57S
GOLDEN TRIANGL CLEAR     30  18  59 N3        30.52S


...SOUTHEAST MISSOURI...

CITY           SKY/WX    TMP DP  RH WIND       PRES   REMARKS
KENNETT        CLEAR     27  23  86 CALM      30.60S
WEST PLAINS    CLOUDY    26  15  63 CALM      30.55R
POPLAR BLUFF   CLEAR     24  20  84 CALM      30.59S
CAPE GIRARDEAU CLEAR     24  18  77 CALM      30.59S


...NORTHWEST ALABAMA...

CITY           SKY/WX    TMP DP  RH WIND       PRES   REMARKS
MUSCLE SHOALS  CLEAR     30  19  63 N5        30.56S WCI  25


...MIDDLE TENNESSEE...

CITY           SKY/WX    TMP DP  RH WIND       PRES   REMARKS
NASHVILLE      CLEAR     27  17  66 N3        30.57R
CLARKSVILLE    CLEAR     23  15  71 NE3       30.57R
COLUMBIA       CLEAR     25  25 100 CALM      30.53S


...WESTERN KENTUCKY...

CITY           SKY/WX    TMP DP  RH WIND       PRES   REMARKS
PADUCAH        CLEAR     20  14  77 CALM      30.57F
FORT CAMPBELL  CLEAR     25  17  71 N3        30.57R


...CENTRAL ARKANSAS...

CITY           SKY/WX    TMP DP  RH WIND       PRES   REMARKS
LITTLE ROCK    CLEAR     28  23  81 CALM      30.60S


SKY/WX REPORTED AS FAIR MEANS FEW OR NO CLOUDS BELOW
12 THOUSAND FEET.




USA.gov is the U.S. government's official web portal to all federal, state and local government web resources and services.